Weather History for KFSE - January, 2014

Change the Weather History Date:

Thursday, January 2, 2014

  Actual Average Record
Temperature  
Mean Temperature -20 °F -  
Max Temperature -5 °F 16 °F 38 °F (1964)
Min Temperature -34 °F -4 °F -34 °F (2014)
Degree Days  
Heating Degree Days 84    
Moisture  
Dew Point -26 °F    
Average Humidity 71    
Maximum Humidity 84    
Minimum Humidity 59    
Precipitation  
Precipitation 0.00 in - - ()
Sea Level Pressure  
Sea Level Pressure 30.36 in    
Wind  
Wind Speed 2 mph (South)    
Max Wind Speed 16 mph    
Max Gust Speed -    
Visibility 10 miles    
Events      
Averages and records for this station are not official NWS values.
T = Trace of Precipitation, MM = Missing Value Source: NWS Daily Summary

Daily Weather History Graph

Daily Weather History Graph

Search for Another Location

Airport or City:

Trip Planner

Search our weather history database for the weather conditions in past years. The results will help you decide how hot, cold, wet, or windy it might be!

Date:

Astronomy

Jan. 02, 2014 Rise Set
Actual Time 8:11 AM CST 4:43 PM CST
Civil Twilight 7:35 AM CST 5:19 PM CST
Nautical Twilight 6:56 AM CST 5:58 PM CST
Astronomical Twilight 6:19 AM CST 6:35 PM CST
Moon 8:45 AM CST (1/2) 6:51 PM CST (1/2)
Length of Visible Light 9h 43m
Length of Day
8h 32m
Waxing Crescent, 3% of the Moon is Illuminated
Jan 2
Waxing Crescent
Jan 7
First Quarter
Jan 15
Full
Jan 23
Last Quarter
Jan 30
New

Hourly Weather History & Observations

Time (CST) Temp. Windchill Dew Point Humidity Pressure Visibility Wind Dir Wind Speed Gust Speed Precip Events Conditions
12:15 AM -25.6 °F - -32.8 °F 69% 30.42 in 10.0 mi Calm Calm - N/A   Clear
12:35 AM -27.4 °F - -34.6 °F 69% 30.41 in 10.0 mi Calm Calm - N/A   Clear
12:55 AM -27.4 °F - -34.6 °F 69% 30.40 in 10.0 mi Calm Calm - N/A   Clear
1:15 AM -29.2 °F - -36.4 °F 68% 30.40 in 10.0 mi Calm Calm - N/A   Clear
1:35 AM -29.2 °F - -36.4 °F 68% 30.40 in 10.0 mi Calm Calm - N/A   Clear
1:56 AM -29.2 °F - -36.4 °F 68% 30.40 in 10.0 mi Calm Calm - N/A   Scattered Clouds
2:15 AM -27.4 °F - -34.6 °F 69% 30.42 in 10.0 mi Calm Calm - N/A   Mostly Cloudy
2:35 AM -29.2 °F - -36.4 °F 68% 30.41 in 10.0 mi Calm Calm - N/A   Mostly Cloudy
2:56 AM -27.4 °F - -34.6 °F 69% 30.42 in 10.0 mi Calm Calm - N/A   Clear
3:15 AM -27.4 °F - -34.6 °F 69% 30.42 in 10.0 mi Calm Calm - N/A   Scattered Clouds
3:35 AM -27.4 °F - -34.6 °F 69% 30.41 in 10.0 mi Calm Calm - N/A   Scattered Clouds
3:56 AM -29.2 °F - -36.4 °F 68% 30.42 in 10.0 mi Calm Calm - N/A   Clear
4:15 AM -29.2 °F - -36.4 °F 68% 30.42 in 10.0 mi Calm Calm - N/A   Clear
4:35 AM -29.2 °F - -36.4 °F 68% 30.42 in 10.0 mi Calm Calm - N/A   Clear
4:56 AM -31.0 °F - -38.2 °F 68% 30.42 in 10.0 mi Calm Calm - N/A   Clear
5:15 AM -29.2 °F - -36.4 °F 68% 30.42 in 10.0 mi Calm Calm - N/A   Clear
5:35 AM -29.2 °F - -36.4 °F 68% 30.43 in 10.0 mi Calm Calm - N/A   Clear
5:55 AM -32.8 °F - -38.2 °F 75% 30.42 in 10.0 mi Calm Calm - N/A   Clear
6:15 AM -34.6 °F - -41.8 °F 68% 30.42 in 10.0 mi Calm Calm - N/A   Clear
6:35 AM -34.6 °F - -41.8 °F 68% 30.42 in 10.0 mi Calm Calm - N/A   Mostly Cloudy
6:55 AM -32.8 °F - -38.2 °F 75% 30.42 in 10.0 mi Calm Calm - N/A   Scattered Clouds
7:15 AM -34.6 °F - -41.8 °F 68% 30.42 in 10.0 mi Calm Calm - N/A   Clear
7:35 AM -34.6 °F - -41.8 °F 68% 30.43 in 10.0 mi Calm Calm - N/A   Clear
7:55 AM -34.6 °F - -41.8 °F 68% 30.43 in 10.0 mi Calm Calm - N/A   Clear
8:15 AM -34.6 °F - -43.6 °F 61% 30.44 in 10.0 mi Calm Calm - N/A   Clear
8:35 AM -34.6 °F - -43.6 °F 61% 30.44 in 10.0 mi Calm Calm - N/A   Clear
8:55 AM -31.0 °F - -38.2 °F 68% 30.44 in 3.0 mi Calm Calm - N/A   Haze
9:15 AM -25.6 °F - -31.0 °F 76% 30.45 in 10.0 mi Calm Calm - N/A   Clear
9:35 AM -22.0 °F - -29.2 °F 69% 30.44 in 10.0 mi Calm Calm - N/A   Clear
9:55 AM -18.4 °F - -25.6 °F 70% 30.46 in 10.0 mi Calm Calm - N/A   Clear
10:15 AM -14.8 °F - -22.0 °F 70% 30.44 in 3.0 mi Calm Calm - N/A   Haze
10:35 AM -11.2 °F - -20.2 °F 64% 30.44 in 3.0 mi Calm Calm - N/A   Haze
10:55 AM -11.2 °F - -18.4 °F 70% 30.44 in 1.2 mi Calm Calm - N/A   Haze
11:15 AM -11.2 °F - -20.2 °F 64% 30.43 in 10.0 mi Calm Calm - N/A   Clear
11:35 AM -9.4 °F - -18.4 °F 65% 30.43 in 10.0 mi Calm Calm - N/A   Clear
11:55 AM -9.4 °F - -18.4 °F 65% 30.44 in 10.0 mi Calm Calm - N/A   Clear
12:15 PM -7.6 °F - -16.6 °F 65% 30.42 in 10.0 mi Calm Calm - N/A   Clear
12:35 PM -7.6 °F - -18.4 °F 59% 30.42 in 10.0 mi Calm Calm - N/A   Clear
12:55 PM -5.8 °F - -16.6 °F 60% 30.40 in 10.0 mi Calm Calm - N/A   Clear
1:15 PM -5.8 °F - -16.6 °F 60% 30.40 in 10.0 mi Calm Calm - N/A   Clear
1:35 PM -5.8 °F - -14.8 °F 65% 30.40 in 10.0 mi Calm Calm - N/A   Clear
1:55 PM -5.8 °F -19.9 °F -14.8 °F 65% 30.41 in 10.0 mi SW 6.9 mph - N/A   Clear
2:15 PM -5.8 °F -18.4 °F -14.8 °F 65% 30.41 in 10.0 mi SSW 5.8 mph - N/A   Clear
2:35 PM -5.8 °F -21.2 °F -14.8 °F 65% 30.41 in 10.0 mi SSW 8.1 mph - N/A   Clear
2:55 PM -5.8 °F -19.9 °F -16.6 °F 60% 30.40 in 10.0 mi SSW 6.9 mph - N/A   Clear
3:15 PM -7.6 °F -22.1 °F -16.6 °F 65% 30.39 in 10.0 mi SSW 6.9 mph - N/A   Clear
3:35 PM -9.4 °F -24.3 °F -18.4 °F 65% 30.40 in 10.0 mi SSW 6.9 mph - N/A   Clear
3:55 PM -11.2 °F -24.8 °F -20.2 °F 64% 30.38 in 10.0 mi South 5.8 mph - N/A   Clear
4:15 PM -13.0 °F -30.0 °F -20.2 °F 70% 30.36 in 10.0 mi South 8.1 mph - N/A   Clear
4:35 PM -16.6 °F -32.9 °F -23.8 °F 70% 30.36 in 10.0 mi South 6.9 mph - N/A   Clear
4:55 PM -18.4 °F -35.1 °F -23.8 °F 76% 30.35 in 10.0 mi South 6.9 mph - N/A   Clear
5:15 PM -16.6 °F -34.4 °F -22.0 °F 76% 30.35 in 10.0 mi SSE 8.1 mph - N/A   Clear
5:35 PM -16.6 °F -34.4 °F -20.2 °F 84% 30.34 in 10.0 mi SSE 8.1 mph - N/A   Clear
5:55 PM -14.8 °F -30.8 °F -18.4 °F 84% 30.33 in 10.0 mi SSE 6.9 mph - N/A   Clear
6:15 PM -14.8 °F -30.8 °F -18.4 °F 84% 30.31 in 10.0 mi SSE 6.9 mph - N/A   Clear
6:35 PM -14.8 °F -32.2 °F -20.2 °F 77% 30.30 in 10.0 mi SSE 8.1 mph - N/A   Clear
6:55 PM -16.6 °F -35.7 °F -22.0 °F 76% 30.28 in 10.0 mi SSE 9.2 mph - N/A   Clear
7:15 PM -16.6 °F -32.9 °F -23.8 °F 70% 30.28 in 10.0 mi SSE 6.9 mph - N/A   Clear
7:35 PM -16.6 °F -34.4 °F -20.2 °F 84% 30.27 in 10.0 mi SSE 8.1 mph - N/A   Clear
7:55 PM -14.8 °F -32.2 °F -18.4 °F 84% 30.27 in 10.0 mi SSE 8.1 mph - N/A   Clear
8:15 PM -16.6 °F -32.9 °F -23.8 °F 70% 30.26 in 10.0 mi South 6.9 mph - N/A   Clear
8:35 PM -18.4 °F -36.6 °F -22.0 °F 84% 30.24 in 10.0 mi South 8.1 mph - N/A   Clear
8:55 PM -14.8 °F -32.2 °F -18.4 °F 84% 30.22 in 10.0 mi SSE 8.1 mph - N/A   Clear
9:15 PM -16.6 °F -32.9 °F -20.2 °F 84% 30.21 in 10.0 mi South 6.9 mph - N/A   Clear
9:35 PM -16.6 °F -34.4 °F -22.0 °F 76% 30.20 in 10.0 mi South 8.1 mph - N/A   Clear
9:55 PM -14.8 °F -32.2 °F -20.2 °F 77% 30.19 in 10.0 mi South 8.1 mph - N/A   Clear
10:15 PM -13.0 °F -32.4 °F -18.4 °F 77% 30.17 in 10.0 mi SSE 10.4 mph - N/A   Clear
10:35 PM -11.2 °F -31.1 °F -16.6 °F 77% 30.16 in 10.0 mi South 11.5 mph - N/A   Clear
10:55 PM -11.2 °F -32.1 °F -16.6 °F 77% 30.14 in 10.0 mi South 12.7 mph - N/A   Clear
11:15 PM -11.2 °F -32.9 °F -16.6 °F 77% 30.13 in 10.0 mi South 13.8 mph - N/A   Clear
11:35 PM -11.2 °F -32.1 °F -16.6 °F 77% 30.11 in 10.0 mi South 12.7 mph - N/A   Clear
11:55 PM -9.4 °F -32.1 °F -14.8 °F 77% 30.09 in 10.0 mi South 16.1 mph - N/A   Clear